GW5344 Weather Reports


time (UTC)temp
F
wind
direction
speed
knots
gust
knots
rain 1hr
in
rain 24hr
in
rain mn
in
humidity
%
barometer
mb
20260504045007 47 289 0.0 1.7 0.00 0.00 0.00 58 1012.9
20260504044526 47 287 0.0 1.7 0.00 0.00 0.00 58 1013.0
20260504044010 47 279 0.0 1.7 0.00 0.00 0.00 58 1013.0
20260504043507 47 296 0.0 1.7 0.00 0.00 0.00 57 1013.0
20260504043033 47 286 0.0 1.7 0.00 0.00 0.00 57 1013.0
20260504042509 47 275 0.0 1.7 0.00 0.00 0.00 57 1013.0
20260504042008 48 294 0.0 1.7 0.00 0.00 0.00 56 1013.0
20260504041515 48 292 0.0 1.7 0.00 0.00 0.00 54 1013.0
20260504041003 48 290 0.0 1.7 0.00 0.00 0.00 55 1013.0
20260504040509 48 294 0.0 1.7 0.00 0.00 0.00 54 1013.0
20260504040024 48 288 0.0 0.0 0.00 0.00 0.00 53 1013.0
20260504035506 48 289 0.0 0.0 0.00 0.00 0.00 54 1013.0
20260504035007 48 289 0.0 0.0 0.00 0.00 0.00 54 1013.0
20260504034519 48 288 0.0 0.0 0.00 0.00 0.00 53 1013.0
20260504034013 49 288 0.0 0.0 0.00 0.00 0.00 52 1012.9
20260504033506 49 289 0.0 0.0 0.00 0.00 0.00 51 1013.0
20260504033028 49 289 0.0 0.0 0.00 0.00 0.00 53 1012.9
20260504032510 49 289 0.0 0.0 0.00 0.00 0.00 52 1012.9
20260504032013 49 288 0.0 0.0 0.00 0.00 0.00 52 1013.0
20260504031528 49 289 0.0 0.0 0.00 0.00 0.00 52 1012.9
20260504031013 49 288 0.0 1.7 0.00 0.00 0.00 52 1013.0
20260504030509 49 289 0.0 1.7 0.00 0.00 0.00 51 1013.1
20260504030017 50 289 0.0 1.7 0.00 0.00 0.00 51 1013.1
20260504025509 49 289 0.0 0.0 0.00 0.00 0.00 52 1013.1
20260504025005 49 289 0.0 0.0 0.00 0.00 0.00 52 1013.2
20260504024520 50 288 0.0 0.0 0.00 0.00 0.00 51 1013.2
20260504024009 50 289 0.0 0.0 0.00 0.00 0.00 51 1013.3
20260504023506 50 288 0.0 0.0 0.00 0.00 0.00 50 1013.3
20260504023027 50 289 0.0 1.7 0.00 0.00 0.00 50 1013.3
20260504022508 51 288 0.0 1.7 0.00 0.00 0.00 49 1013.3
20260504022004 51 289 0.0 1.7 0.00 0.00 0.00 49 1013.3
20260504021511 51 289 0.0 1.7 0.00 0.00 0.00 48 1013.4
20260504021004 51 288 0.0 1.7 0.00 0.00 0.00 49 1013.4
20260504020505 51 287 0.0 1.7 0.00 0.00 0.00 49 1013.4
20260504020013 51 270 0.0 1.7 0.00 0.00 0.00 49 1013.4
20260504015506 51 277 0.0 1.7 0.00 0.00 0.00 48 1013.4
20260504015009 51 279 0.0 1.7 0.00 0.00 0.00 48 1013.4
20260504014517 51 281 0.0 1.7 0.00 0.00 0.00 48 1013.4
20260504014009 52 280 0.0 1.7 0.00 0.00 0.00 47 1013.4
20260504013510 51 274 0.0 0.0 0.00 0.00 0.00 48 1013.3
20260504013022 52 274 0.0 0.9 0.00 0.00 0.00 47 1013.3
20260504012506 52 265 0.0 1.7 0.00 0.00 0.00 46 1013.3
20260504012007 52 265 0.0 1.7 0.00 0.00 0.00 45 1013.3
20260504011526 52 263 0.0 1.7 0.00 0.00 0.00 46 1013.2
20260504011012 52 263 0.0 1.7 0.00 0.00 0.00 45 1013.2
20260504010504 52 275 0.0 1.7 0.00 0.00 0.00 45 1013.1
20260504010009 53 275 0.0 1.7 0.00 0.00 0.00 45 1013.1
20260504005505 53 275 0.0 1.7 0.00 0.00 0.00 45 1013.1
20260504005011 53 275 0.0 1.7 0.00 0.00 0.00 45 1013.1
20260504004514 53 275 0.0 1.7 0.00 0.00 0.00 45 1013.1
20260504004010 53 269 0.0 1.7 0.00 0.00 0.00 44 1013.1
20260504003509 53 269 0.0 1.7 0.00 0.00 0.00 44 1013.1
20260504003023 54 233 0.0 1.7 0.00 0.00 0.00 44 1013.2
20260504002509 54 289 0.0 1.7 0.00 0.00 0.00 44 1013.1
20260504002011 54 289 0.0 1.7 0.00 0.00 0.00 42 1013.1
20260504001523 54 292 0.0 1.7 0.00 0.00 0.00 42 1013.1
20260504001007 55 283 0.0 1.7 0.00 0.00 0.00 41 1013.0
20260504000507 55 262 0.0 2.6 0.00 0.00 0.00 41 1013.0
20260504000027 55 276 0.0 2.6 0.00 0.00 0.00 40 1013.0
20260503235509 55 286 0.0 1.7 0.00 0.00 0.00 40 1013.0
20260503235011 55 250 0.0 1.7 0.00 0.00 0.00 40 1013.0
20260503234529 56 314 0.0 2.6 0.00 0.00 0.00 39 1013.0
20260503234009 56 302 0.9 2.6 0.00 0.00 0.00 38 1013.0
20260503233508 56 334 0.9 4.3 0.00 0.00 0.00 38 1013.1
20260503233028 56 297 0.9 6.1 0.00 0.00 0.00 38 1013.0
20260503232507 56 290 0.9 6.1 0.00 0.00 0.00 38 1013.1
20260503232011 57 284 0.0 3.5 0.00 0.00 0.00 39 1013.2
20260503231524 57 281 0.9 3.5 0.00 0.00 0.00 38 1013.2
20260503231007 57 269 0.9 6.1 0.00 0.00 0.00 39 1013.2
20260503230507 57 304 0.9 6.1 0.00 0.00 0.00 37 1013.1
20260503230022 57 288 0.0 3.5 0.00 0.00 0.00 38 1013.1
20260503225510 57 267 0.0 6.1 0.00 0.00 0.00 37 1013.1
20260503225011 57 149 0.9 7.0 0.00 0.00 0.00 37 1013.0
20260503224527 57 279 0.9 7.0 0.00 0.00 0.00 37 1013.0
20260503224009 57 310 0.9 6.1 0.00 0.00 0.00 38 1013.1
20260503223512 58 247 1.7 6.1 0.00 0.00 0.00 37 1013.2
20260503223028 58 71 0.9 6.1 0.00 0.00 0.00 37 1013.2
20260503222508 58 254 1.7 7.8 0.00 0.00 0.00 35 1013.3
20260503222010 58 146 1.7 7.8 0.00 0.00 0.00 36 1013.3
20260503221523 58 266 0.9 7.8 0.00 0.00 0.00 36 1013.4
20260503221007 58 120 1.7 3.5 0.00 0.00 0.00 36 1013.4
20260503220508 58 299 0.9 7.0 0.00 0.00 0.00 37 1013.4
20260503220027 58 257 1.7 7.0 0.00 0.00 0.00 36 1013.4
20260503215511 59 269 0.9 7.0 0.00 0.00 0.00 36 1013.4
20260503215009 59 278 0.9 7.0 0.00 0.00 0.00 36 1013.4
20260503214528 58 149 1.7 7.0 0.00 0.00 0.00 37 1013.4
20260503214007 58 295 0.9 6.1 0.00 0.00 0.00 36 1013.3
20260503213508 57 313 1.7 6.1 0.00 0.00 0.00 38 1013.3
20260503213030 57 243 1.7 5.2 0.00 0.00 0.00 37 1013.2
20260503212509 57 160 0.9 5.2 0.00 0.00 0.00 39 1013.3
20260503212009 58 282 0.9 5.2 0.00 0.00 0.00 37 1013.3
20260503211530 58 150 1.7 5.2 0.00 0.00 0.00 36 1013.3
20260503211012 59 306 2.6 7.8 0.00 0.00 0.00 35 1013.2
20260503210510 59 55 2.6 7.8 0.00 0.00 0.00 35 1013.2
20260503210028 59 325 1.7 4.3 0.00 0.00 0.00 36 1013.3
20260503205507 59 275 1.7 7.0 0.00 0.00 0.00 37 1013.4
20260503205007 58 299 0.9 7.8 0.00 0.00 0.00 37 1013.4
20260503204515 58 259 1.7 7.8 0.00 0.00 0.00 37 1013.5
20260503204005 58 300 1.7 6.1 0.00 0.00 0.00 36 1013.5
20260503203505 60 294 1.7 6.1 0.00 0.00 0.00 36 1013.5
20260503203013 58 277 1.7 5.2 0.00 0.00 0.00 36 1013.6
20260503202505 58 223 0.9 5.2 0.00 0.00 0.00 37 1013.7
20260503202010 59 211 1.7 5.2 0.00 0.00 0.00 36 1013.8
20260503201518 58 202 1.7 5.2 0.00 0.00 0.00 36 1013.7
20260503201005 58 201 0.9 8.7 0.00 0.00 0.00 37 1013.8
20260503200509 58 263 1.7 8.7 0.00 0.00 0.00 36 1013.8
20260503200021 58 240 1.7 5.2 0.00 0.00 0.00 37 1013.7
20260503195510 58 292 0.9 5.2 0.00 0.00 0.00 40 1013.8
20260503195007 58 249 1.7 6.1 0.00 0.00 0.00 37 1014.0
20260503194526 59 290 1.7 6.1 0.00 0.00 0.00 36 1014.0
20260503194011 58 331 1.7 5.2 0.00 0.00 0.00 39 1014.0
20260503193504 59 319 1.7 5.2 0.00 0.00 0.00 36 1014.1
20260503193008 59 277 1.7 5.2 0.00 0.00 0.00 38 1014.1
20260503192504 59 290 1.7 5.2 0.00 0.00 0.00 38 1014.3
20260503192007 58 288 0.9 4.3 0.00 0.00 0.00 38 1014.3
20260503191528 58 201 1.7 4.3 0.00 0.00 0.00 35 1014.4
20260503191005 57 217 0.9 7.0 0.00 0.00 0.00 36 1014.6
20260503190504 57 242 0.9 7.0 0.00 0.00 0.00 37 1014.7
20260503190017 58 271 1.7 6.1 0.00 0.00 0.00 38 1014.9
20260503185510 59 287 1.7 6.1 0.00 0.00 0.00 37 1014.9
20260503185006 58 290 1.7 4.3 0.00 0.00 0.00 40 1015.0
20260503184525 59 96 0.9 3.5 0.00 0.00 0.00 37 1015.0
20260503184010 58 275 0.9 5.2 0.00 0.00 0.00 37 1015.1
20260503183511 59 290 0.9 7.0 0.00 0.00 0.00 35 1015.1
20260503183026 58 105 0.9 7.0 0.00 0.00 0.00 38 1015.2
20260503182505 57 300 1.7 7.0 0.00 0.00 0.00 40 1015.2
20260503182005 58 211 2.6 7.0 0.00 0.00 0.00 37 1015.3
20260503181513 59 292 1.7 7.0 0.00 0.00 0.00 38 1015.2
20260503181008 58 196 0.9 4.3 0.00 0.00 0.00 37 1015.3
20260503180512 56 134 1.7 7.0 0.00 0.00 0.00 40 1015.4
20260503180021 57 167 2.6 7.0 0.00 0.00 0.00 39 1015.4
20260503175507 56 311 0.9 7.8 0.00 0.00 0.00 37 1015.6
20260503175006 57 5 1.7 7.8 0.00 0.00 0.00 39 1015.6
20260503174523 56 58 0.9 5.2 0.00 0.00 0.00 40 1015.6
20260503174010 57 308 0.9 5.2 0.00 0.00 0.00 40 1015.6
20260503173512 57 331 1.7 5.2 0.00 0.00 0.00 37 1015.6
20260503173025 56 300 0.9 5.2 0.00 0.00 0.00 38 1015.7
20260503172510 57 200 1.7 5.2 0.00 0.00 0.00 39 1015.8
20260503172007 56 201 0.9 5.2 0.00 0.00 0.00 41 1015.8
20260503171529 57 316 1.7 7.8 0.00 0.00 0.00 38 1015.9
20260503171004 56 323 0.9 7.8 0.00 0.00 0.00 37 1015.9
20260503170504 56 15 1.7 7.8 0.00 0.00 0.00 39 1015.9
20260503151012 53 165 0.9 5.2 0.00 0.00 0.00 42 1016.8
20260503150511 52 244 0.9 5.2 0.00 0.00 0.00 38 1016.8
20260503131009 46 84 0.9 3.5 0.00 0.00 0.00 61 1017.3
20260503130510 45 288 0.9 3.5 0.00 0.00 0.00 63 1017.4
20260503110508 36 288 0.0 1.7 0.00 0.01 0.00 84 1016.5
20260503090508 34 256 0.0 0.0 0.00 0.01 0.00 85 1015.7
20260503081526 35 265 0.0 0.0 0.00 0.01 0.00 83 1015.7
20260503081004 35 265 0.0 0.0 0.00 0.01 0.00 83 1015.6
20260503080508 35 268 0.0 0.0 0.00 0.01 0.00 83 1015.6
20260503072508 35 268 0.0 0.0 0.00 0.01 0.00 81 1015.5
20260503072013 35 268 0.0 0.0 0.00 0.01 0.00 81 1015.4
20260503071525 35 271 0.0 0.0 0.00 0.01 0.00 82 1015.4
20260503071005 35 261 0.0 0.0 0.00 0.01 0.00 82 1015.4
20260503070506 35 261 0.0 0.0 0.00 0.01 0.00 82 1015.4
20260503055006 36 241 0.0 0.0 0.00 0.01 0.00 80 1015.5
20260503054513 36 240 0.0 0.0 0.00 0.01 0.00 80 1015.6
20260503054007 36 244 0.0 0.0 0.00 0.01 0.00 80 1015.6
20260503053507 36 244 0.0 0.0 0.00 0.01 0.00 80 1015.6
20260503053023 36 254 0.0 0.0 0.00 0.01 0.00 81 1015.7
20260503052509 36 255 0.0 0.0 0.00 0.01 0.00 82 1015.7
20260503052006 36 283 0.0 0.0 0.00 0.01 0.00 82 1015.6
20260503051522 36 283 0.0 0.0 0.00 0.01 0.00 81 1015.7
20260503051006 35 283 0.0 0.0 0.00 0.01 0.00 81 1015.7
20260503050507 36 283 0.0 0.0 0.00 0.01 0.00 81 1015.7
20260503050029 36 283 0.0 0.0 0.00 0.01 0.00 80 1015.8
20260503045511 36 283 0.0 0.0 0.00 0.01 0.00 81 1015.8